Tracking 23762 objects as of 19-Oct-2021
HD Live streaming from Space Station
objects crossing your sky now

RADUGA 7

Track RADUGA 7 now!
RADUGA 7 is classified as:


NORAD ID: 12003
Int'l Code: 1980-081A
Perigee: 35,719.3 km
Apogee: 35,805.4 km
Inclination: 10.0 °
Period: 1,434.5 minutes
Semi major axis: 42133 km
RCS: 7.9432 m2 (large)
Launch date: October 5, 1980
Source: Commonwealth of Independent States (former USSR) (CIS)
Launch site: TYURATAM MISSILE AND SPACE COMPLEX (TTMTR)
aabbcc
Your satellite tracking list
Your tracking list is empty




NASA's NSSDC Master Catalog

Two Line Element Set (TLE):
1 12003U 80081A   21291.65214126 -.00000140  00000-0  00000-0 0  9991
2 12003   9.9875 306.9744 0010218 258.2754 311.9318  1.00383984106238
Source of the keplerian elements: AFSPC